WZZ424 EPWA-EYVI

Flight info

Callsign WZZ424
Flight time 0h 46m
Altitude 25000
Route BAMS6G BAMSO Z182 ASLUX Z460 XESNA M857 BULEP OFEDE LIZUP DIMTA DIMT2A
Aircraft A320/M-V/N

Departure

Time 2026-05-07 19:58
Airport Warsaw Chopin Airport (EPWA)

Arrival

Time 2026-05-07 20:44
Airport Vilnius International Airport (EYVI)
Time Latitude Longitude Altitude Speed Heading
2026-05-07 19:10 52.17151 20.97018 361 ft 0 kts 65°
2026-05-07 19:47 52.17143 20.96989 363 ft 3 kts 65°
2026-05-07 19:47 52.17132 20.96950 361 ft 5 kts 65°
2026-05-07 19:47 52.17118 20.96896 365 ft 1 kts 107°
2026-05-07 19:48 52.17121 20.96885 364 ft 1 kts 133°
2026-05-07 19:48 52.17132 20.96869 361 ft 3 kts 147°
2026-05-07 19:48 52.17136 20.96864 361 ft 0 kts 151°
2026-05-07 19:50 52.17102 20.96889 364 ft 15 kts 156°
2026-05-07 19:50 52.17086 20.96901 361 ft 16 kts 155°
2026-05-07 19:51 52.16977 20.96997 361 ft 21 kts 153°
2026-05-07 19:51 52.16899 20.97073 361 ft 1 kts 128°
2026-05-07 19:52 52.16871 20.97123 360 ft 10 kts 135°
2026-05-07 19:52 52.16803 20.97190 362 ft 13 kts 156°
2026-05-07 19:52 52.16711 20.97226 362 ft 14 kts 175°
2026-05-07 19:52 52.16622 20.97235 361 ft 0 kts 172°
2026-05-07 19:53 52.16614 20.97248 359 ft 6 kts 134°
2026-05-07 19:53 52.16581 20.97347 363 ft 13 kts 114°
2026-05-07 19:53 52.16539 20.97495 362 ft 16 kts 115°
2026-05-07 19:53 52.16490 20.97671 362 ft 18 kts 114°
2026-05-07 19:54 52.16435 20.97812 358 ft 12 kts 167°
2026-05-07 19:54 52.16356 20.97765 356 ft 13 kts 206°
2026-05-07 19:54 52.16310 20.97654 359 ft 13 kts 284°
2026-05-07 19:54 52.16319 20.97620 363 ft 0 kts 295°
2026-05-07 19:57 52.16327 20.97589 356 ft 12 kts 295°
2026-05-07 19:57 52.16456 20.97128 363 ft 84 kts 294°
2026-05-07 19:58 52.16794 20.95930 365 ft 148 kts 294°
2026-05-07 19:58 52.17285 20.94196 627 ft 181 kts 295°
2026-05-07 19:58 52.17952 20.92359 1240 ft 197 kts 307°
2026-05-07 19:58 52.18924 20.90736 2042 ft 204 kts 320°
2026-05-07 19:59 52.20121 20.89377 2802 ft 212 kts 328°
2026-05-07 19:59 52.21429 20.88111 3313 ft 228 kts 326°
2026-05-07 19:59 52.22693 20.86398 3833 ft 241 kts 313°
2026-05-07 19:59 52.23858 20.84417 4617 ft 243 kts 313°
2026-05-07 20:00 52.25039 20.82420 5398 ft 246 kts 313°
2026-05-07 20:00 52.26323 20.80487 5893 ft 263 kts 326°
2026-05-07 20:00 52.28055 20.79331 5979 ft 274 kts 348°
2026-05-07 20:00 52.29929 20.78783 5980 ft 272 kts 350°
2026-05-07 20:01 52.31790 20.78862 5981 ft 273 kts 15°
2026-05-07 20:01 52.33455 20.80327 5982 ft 274 kts 43°
2026-05-07 20:01 52.34525 20.82880 5980 ft 275 kts 70°
2026-05-07 20:01 52.34802 20.85963 5982 ft 276 kts 90°
2026-05-07 20:02 52.34772 20.89090 5981 ft 275 kts 92°
2026-05-07 20:02 52.34713 20.92218 5980 ft 275 kts 92°
2026-05-07 20:02 52.34666 20.95351 5980 ft 275 kts 91°
2026-05-07 20:02 52.34637 20.98474 5980 ft 275 kts 91°
2026-05-07 20:03 52.34621 21.01607 5995 ft 276 kts 90°
2026-05-07 20:03 52.34611 21.04770 6307 ft 279 kts 90°
2026-05-07 20:03 52.34601 21.07945 7158 ft 278 kts 90°
2026-05-07 20:03 52.34588 21.11085 8013 ft 281 kts 91°
2026-05-07 20:04 52.34559 21.14303 8811 ft 285 kts 91°
2026-05-07 20:04 52.34526 21.17563 9596 ft 288 kts 91°
2026-05-07 20:04 52.34491 21.20868 10331 ft 295 kts 91°
2026-05-07 20:04 52.34455 21.24341 10603 ft 317 kts 91°
2026-05-07 20:05 52.34415 21.28075 10863 ft 338 kts 91°
2026-05-07 20:05 52.34374 21.31963 11510 ft 343 kts 91°
2026-05-07 20:05 52.34331 21.35882 12238 ft 347 kts 91°
2026-05-07 20:05 52.34287 21.39848 12938 ft 350 kts 91°
2026-05-07 20:06 52.34240 21.43854 13623 ft 354 kts 91°
2026-05-07 20:06 52.34191 21.47902 14289 ft 357 kts 91°
2026-05-07 20:06 52.34141 21.51995 14940 ft 361 kts 91°
2026-05-07 20:06 52.34088 21.56114 15572 ft 365 kts 91°
2026-05-07 20:07 52.34034 21.60277 16185 ft 368 kts 91°
2026-05-07 20:07 52.33978 21.64424 16782 ft 371 kts 91°
2026-05-07 20:07 52.33920 21.68666 17366 ft 375 kts 91°
2026-05-07 20:07 52.33859 21.72943 17939 ft 378 kts 91°
2026-05-07 20:08 52.33796 21.77261 18497 ft 381 kts 91°
2026-05-07 20:08 52.33731 21.81614 19041 ft 384 kts 91°
2026-05-07 20:08 52.33664 21.86005 19580 ft 387 kts 91°
2026-05-07 20:08 52.33591 21.90425 20101 ft 390 kts 92°
2026-05-07 20:09 52.33348 21.94868 20617 ft 393 kts 96°
2026-05-07 20:09 52.33072 21.99336 21115 ft 396 kts 96°
2026-05-07 20:09 52.32800 22.03842 21613 ft 400 kts 95°
2026-05-07 20:10 52.33567 22.12749 22503 ft 405 kts 65°
2026-05-07 20:10 52.35040 22.16678 22855 ft 408 kts 50°
2026-05-07 20:10 52.37102 22.19858 22966 ft 408 kts 34°
2026-05-07 20:10 52.39596 22.22040 22981 ft 408 kts 21°
2026-05-07 20:11 52.42283 22.23535 22979 ft 407 kts 17°
2026-05-07 20:11 52.44982 22.24943 22979 ft 407 kts 18°
2026-05-07 20:11 52.47660 22.26459 22979 ft 407 kts 20°
2026-05-07 20:11 52.50319 22.28083 22979 ft 407 kts 21°
2026-05-07 20:12 52.52958 22.29771 22979 ft 407 kts 21°
2026-05-07 20:12 52.55598 22.31496 22979 ft 407 kts 22°
2026-05-07 20:12 52.58228 22.33229 22979 ft 407 kts 22°
2026-05-07 20:12 52.60854 22.34964 22979 ft 407 kts 22°
2026-05-07 20:13 52.63481 22.36700 22979 ft 407 kts 22°
2026-05-07 20:13 52.66080 22.38418 22979 ft 407 kts 22°
2026-05-07 20:13 52.68714 22.40161 22979 ft 407 kts 21°
2026-05-07 20:13 52.71346 22.41904 22979 ft 407 kts 21°
2026-05-07 20:14 52.73978 22.43650 22979 ft 407 kts 22°
2026-05-07 20:14 52.76613 22.45400 22979 ft 407 kts 21°
2026-05-07 20:14 52.79244 22.47149 22979 ft 407 kts 22°
2026-05-07 20:14 52.81839 22.48878 22979 ft 407 kts 22°
2026-05-07 20:15 52.84503 22.50655 22979 ft 407 kts 22°
2026-05-07 20:15 52.87098 22.52388 22979 ft 407 kts 22°
2026-05-07 20:15 52.89728 22.54148 22979 ft 407 kts 22°
2026-05-07 20:15 52.92355 22.55907 22979 ft 407 kts 22°
2026-05-07 20:16 52.94986 22.57671 22979 ft 407 kts 22°
2026-05-07 20:16 52.97613 22.59435 22979 ft 407 kts 22°
2026-05-07 20:16 53.00241 22.61203 22979 ft 407 kts 22°
2026-05-07 20:16 53.02870 22.62973 22979 ft 407 kts 22°
2026-05-07 20:17 53.05493 22.64742 22979 ft 407 kts 22°
2026-05-07 20:17 53.08125 22.66519 22979 ft 407 kts 22°
2026-05-07 20:17 53.09861 22.67692 22979 ft 407 kts 22°
2026-05-07 20:17 53.12488 22.69470 22979 ft 407 kts 22°
2026-05-07 20:18 53.15111 22.71248 22979 ft 407 kts 22°
2026-05-07 20:18 53.17734 22.73028 22979 ft 407 kts 22°
2026-05-07 20:18 53.20358 22.74811 22979 ft 407 kts 22°
2026-05-07 20:18 53.22980 22.76595 22979 ft 407 kts 22°
2026-05-07 20:19 53.25604 22.78387 22979 ft 407 kts 22°
2026-05-07 20:19 53.28227 22.80201 22979 ft 407 kts 23°
2026-05-07 20:19 53.30841 22.82025 22979 ft 407 kts 23°
2026-05-07 20:19 53.33457 22.83847 22980 ft 407 kts 23°
2026-05-07 20:20 53.36075 22.85656 22979 ft 407 kts 22°
2026-05-07 20:20 53.38699 22.87457 22979 ft 407 kts 22°
2026-05-07 20:20 53.41287 22.89229 22980 ft 407 kts 22°
2026-05-07 20:20 53.43914 22.91027 22979 ft 407 kts 22°
2026-05-07 20:21 53.46535 22.92825 22979 ft 407 kts 22°
2026-05-07 20:21 53.49159 22.94627 22979 ft 407 kts 22°
2026-05-07 20:21 53.51782 22.96432 22979 ft 407 kts 22°
2026-05-07 20:21 53.54409 22.98242 22979 ft 407 kts 22°
2026-05-07 20:22 53.57041 23.00060 22979 ft 407 kts 22°
2026-05-07 20:22 53.59667 23.01876 22979 ft 407 kts 22°
2026-05-07 20:22 53.62284 23.03688 22979 ft 407 kts 22°
2026-05-07 20:22 53.64905 23.05506 22979 ft 407 kts 22°
2026-05-07 20:23 53.67518 23.07321 22979 ft 407 kts 22°
2026-05-07 20:23 53.70143 23.09147 22979 ft 407 kts 22°
2026-05-07 20:23 53.72764 23.10974 22980 ft 407 kts 22°
2026-05-07 20:23 53.75381 23.12800 22979 ft 407 kts 22°
2026-05-07 20:24 53.78004 23.14633 22979 ft 407 kts 22°
2026-05-07 20:24 53.80621 23.16465 22979 ft 407 kts 22°
2026-05-07 20:24 53.83236 23.18297 22979 ft 407 kts 22°
2026-05-07 20:24 53.85855 23.20136 22979 ft 407 kts 22°
2026-05-07 20:25 53.88470 23.21974 22979 ft 407 kts 22°
2026-05-07 20:25 53.91053 23.23793 22979 ft 407 kts 22°
2026-05-07 20:25 53.93669 23.25637 22979 ft 407 kts 22°
2026-05-07 20:25 53.96284 23.27483 22979 ft 407 kts 22°
2026-05-07 20:26 53.98900 23.29332 22979 ft 407 kts 22°
2026-05-07 20:26 54.01498 23.31246 22976 ft 407 kts 28°
2026-05-07 20:26 54.03807 23.34032 22980 ft 408 kts 44°
2026-05-07 20:26 54.05579 23.37776 22980 ft 408 kts 60°
2026-05-07 20:27 54.06767 23.42161 22979 ft 409 kts 68°
2026-05-07 20:27 54.07836 23.46641 22979 ft 408 kts 68°
2026-05-07 20:27 54.08903 23.51123 22975 ft 408 kts 68°
2026-05-07 20:27 54.09965 23.55589 22792 ft 405 kts 68°
2026-05-07 20:28 54.11022 23.60028 22380 ft 403 kts 68°
2026-05-07 20:28 54.12071 23.64440 21877 ft 400 kts 68°
2026-05-07 20:28 54.13114 23.68827 21334 ft 397 kts 68°
2026-05-07 20:28 54.14147 23.73184 20788 ft 394 kts 68°
2026-05-07 20:29 54.15165 23.77487 20378 ft 389 kts 68°
2026-05-07 20:29 54.16171 23.81788 20010 ft 389 kts 69°
2026-05-07 20:29 54.17163 23.86046 19640 ft 382 kts 69°
2026-05-07 20:29 54.18138 23.90222 19264 ft 375 kts 68°
2026-05-07 20:30 54.19101 23.94329 18888 ft 369 kts 68°
2026-05-07 20:30 54.19965 23.98406 18512 ft 363 kts 70°
2026-05-07 20:30 54.20865 24.02356 18142 ft 357 kts 68°
2026-05-07 20:30 54.21773 24.06281 17759 ft 352 kts 70°
2026-05-07 20:31 54.22628 24.10165 17385 ft 347 kts 71°
2026-05-07 20:31 54.23442 24.14020 16990 ft 343 kts 71°
2026-05-07 20:31 54.24236 24.17808 16572 ft 333 kts 71°
2026-05-07 20:31 54.25010 24.21476 16167 ft 322 kts 71°
2026-05-07 20:32 54.25759 24.24904 15782 ft 313 kts 66°
2026-05-07 20:32 54.26551 24.28316 15379 ft 304 kts 69°
2026-05-07 20:32 54.27275 24.31617 14982 ft 296 kts 70°
2026-05-07 20:32 54.27957 24.34889 14611 ft 290 kts 71°
2026-05-07 20:33 54.28635 24.38179 14240 ft 294 kts 71°
2026-05-07 20:33 54.29318 24.41476 13866 ft 293 kts 70°
2026-05-07 20:33 54.30002 24.44759 13489 ft 292 kts 70°
2026-05-07 20:33 54.30683 24.48017 13114 ft 290 kts 70°
2026-05-07 20:34 54.31362 24.51259 12737 ft 288 kts 71°
2026-05-07 20:34 54.32029 24.54493 12362 ft 287 kts 72°
2026-05-07 20:34 54.32673 24.57712 11980 ft 285 kts 72°
2026-05-07 20:34 54.33315 24.60916 11607 ft 283 kts 72°
2026-05-07 20:35 54.33965 24.64095 11233 ft 282 kts 71°
2026-05-07 20:35 54.34618 24.67248 10862 ft 280 kts 71°
2026-05-07 20:35 54.35273 24.70381 10485 ft 279 kts 71°
2026-05-07 20:35 54.35926 24.73503 10111 ft 277 kts 71°
2026-05-07 20:36 54.36575 24.76608 9739 ft 276 kts 71°
2026-05-07 20:36 54.37220 24.79704 9364 ft 275 kts 71°
2026-05-07 20:36 54.37859 24.82782 9017 ft 273 kts 71°
2026-05-07 20:36 54.38481 24.85841 8661 ft 271 kts 72°
2026-05-07 20:37 54.39085 24.88870 8272 ft 265 kts 72°
2026-05-07 20:37 54.39682 24.91830 7836 ft 260 kts 71°
2026-05-07 20:37 54.40271 24.94710 7374 ft 257 kts 71°
2026-05-07 20:37 54.40865 24.97594 6878 ft 255 kts 71°
2026-05-07 20:38 54.41454 25.00445 6366 ft 252 kts 71°
2026-05-07 20:38 54.42036 25.03263 5892 ft 248 kts 71°
2026-05-07 20:38 54.42600 25.05998 5623 ft 236 kts 71°
2026-05-07 20:38 54.43132 25.08578 5414 ft 223 kts 71°
2026-05-07 20:39 54.43634 25.11021 5187 ft 210 kts 71°
2026-05-07 20:39 54.44120 25.13311 4780 ft 199 kts 66°
2026-05-07 20:39 54.44891 25.15185 4359 ft 187 kts 41°
2026-05-07 20:39 54.45913 25.16391 4090 ft 171 kts 27°
2026-05-07 20:40 54.46946 25.17218 3865 ft 161 kts 22°
2026-05-07 20:40 54.48034 25.17959 3630 ft 170 kts 21°
2026-05-07 20:40 54.49127 25.18712 3392 ft 169 kts 21°
2026-05-07 20:40 54.50217 25.19461 3161 ft 168 kts 21°
2026-05-07 20:41 54.51304 25.20210 2929 ft 168 kts 21°
2026-05-07 20:41 54.52368 25.20944 2708 ft 158 kts 21°
2026-05-07 20:41 54.53341 25.21615 2484 ft 145 kts 21°
2026-05-07 20:41 54.54254 25.22249 2269 ft 141 kts 21°
2026-05-07 20:42 54.55164 25.22886 2144 ft 141 kts 21°
2026-05-07 20:42 54.56074 25.23532 1943 ft 141 kts 22°
2026-05-07 20:42 54.56977 25.24165 1750 ft 140 kts 20°
2026-05-07 20:42 54.57890 25.24755 1577 ft 140 kts 20°
2026-05-07 20:43 54.58785 25.25362 1362 ft 140 kts 21°
2026-05-07 20:43 54.59683 25.25979 1186 ft 139 kts 21°
2026-05-07 20:43 54.60580 25.26604 1003 ft 139 kts 21°
2026-05-07 20:43 54.61473 25.27232 805 ft 138 kts 21°
2026-05-07 20:44 54.62363 25.27843 655 ft 137 kts 21°
2026-05-07 20:44 54.63192 25.28412 634 ft 101 kts 24°
2026-05-07 20:44 54.63563 25.28674 637 ft 22 kts 21°
2026-05-07 20:44 54.63706 25.28762 639 ft 16 kts
2026-05-07 20:45 54.63822 25.28738 641 ft 17 kts 351°
2026-05-07 20:45 54.63938 25.28710 643 ft 17 kts 354°
2026-05-07 20:45 54.64051 25.28688 645 ft 17 kts 353°
2026-05-07 20:45 54.64122 25.28581 646 ft 15 kts 268°
2026-05-07 20:46 54.64118 25.28392 645 ft 17 kts 269°
2026-05-07 20:46 54.64180 25.28337 647 ft 10 kts
2026-05-07 20:46 54.64222 25.28283 647 ft 8 kts 268°
2026-05-07 20:46 54.64243 25.28211 647 ft 0 kts